Regional Weather Roundup
Issued by NWS

Home | Current Version | Previous Version | Graphics & Text | Print | Product List | Glossary On
Versions: 1 2 3 4 5 6 7 8 9 10 11 12 13 14 15 16 17 18 19 20 21 22 23 24 25 26 27 28 29 30 31 32 33 34 35 36 37 38 39 40 41 42 43 44 45 46 47 48 49 50
000
ASUS43 KMPX 221601
RWRMN
WEATHER ROUNDUP FOR MINNESOTA
NATIONAL WEATHER SERVICE TWIN CITIES/CHANHASSEN MN
1100 AM CDT SAT APR 22 2017


NOTE: "FAIR" INDICATES FEW OR NO CLOUDS BELOW 12,000 FEET WITH NO
SIGNIFICANT WEATHER AND/OR OBSTRUCTIONS TO VISIBILITY. N/A MEANS
CURRENT SKY AND/OR WEATHER CONDITIONS ARE NOT AVAILABLE.

MNZ060>063-068>070-221700-
   Twin Cities Metro

CITY           SKY/WX    TMP DP  RH WIND       PRES   REMARKS
TWIN CITIES    SUNNY     60  31  33 W8        30.24F
ST PAUL        SUNNY     61  31  32 VRB7      30.25F
CRYSTAL        SUNNY     62  33  33 MISG      30.23F
BLAINE         MOSUNNY   63  36  36 CALM      30.24F
LAKEVILLE      SUNNY     59  32  36 SW5       30.25F
EDEN PRAIRIE   SUNNY     62  37  39 SW7       30.23F
SOUTH ST PAUL  SUNNY     61  28  28 W8        30.24F
LAKE ELMO      FAIR      61  32  33 SW6       30.25F
$$
MNZ001>005-007-008-013>017-022>024-027-028-221700-
   Northwest Minnesota

CITY           SKY/WX    TMP DP  RH WIND       PRES   REMARKS
BEMIDJI        SUNNY     61  37  41 W16G24    30.15F
HALLOCK        CLOUDY    41  39  93 N15       30.20R
ROSEAU         PTSUNNY   50  43  76 N16       30.15R
WARROAD        CLOUDY    48  43  81 NW16G23   30.15R
THIEF RVR FALL MOSUNNY   58  40  51 W20       30.15F
CROOKSTON      PTSUNNY   57  41  54 W13       30.16F
FOSSTON        MOSUNNY   59  39  47 SW13      30.17S
DETROIT LAKES  MOSUNNY   57  39  51 W14G20    30.21S
MOORHEAD       MOSUNNY   61  43  51 W15       30.20F
PARK RAPIDS    MOSUNNY   61  37  41 W10       30.19S
MAHNOMEN       CLOUDY    58  41  51 SW18      30.18S
$$
MNZ006-009>011-018-025>026-221700-
   North Central Minnesota

CITY           SKY/WX    TMP DP  RH WIND       PRES   REMARKS
BAUDETTE       CLOUDY    59  37  44 W13       30.08F
FLAG ISLAND    CLOUDY    43  37  81 N18       30.14R
INTL FALLS     MOSUNNY   60  38  43 W14G22    30.07F
WASKISH        SUNNY     57  43  58 SW15      30.12S
BIG FORK       MOSUNNY   63  37  39 SW16      30.12F
LONGVILLE      SUNNY     61  36  39 SW13G18   30.17F
GRAND RAPIDS   MOSUNNY   61  38  42 W12G17    30.17F
CRANE LAKE     SUNNY     59  36  41 SW5       30.10F
ORR            MOSUNNY   61  34  36 MISG      30.08F
COOK           MOSUNNY   59  37  44 W13G20    30.12F
WALKER         FAIR      60  37  42 W12G21    30.17S
$$
MNZ012-019>021-037-221700-
   Northeast Minnesota

CITY           SKY/WX    TMP DP  RH WIND       PRES   REMARKS
DULUTH         MOSUNNY   61  36  39 W13G23    30.16F
ELY            SUNNY     57  34  41 W12       30.11F
HIBBING        SUNNY     59  37  44 W10G20    30.14F
EVELETH        SUNNY     60  29  30 W16       30.14F
DULUTH HARBOR  MOSUNNY   63  37  39 SW12      30.16F
TWO HARBORS    SUNNY     64  39  39 W12G18    30.12F
SILVER BAY     SUNNY     63  34  34 W10G18    30.11F
GRAND MARAIS     N/A     42  36  79 SW9       30.10F
G MARAIS ARPRT MOSUNNY   57  27  30 SW12G17   30.11F
$$
MNZ029>031-032-039>041-046>048-054>057-064-221700-
   West Central Minnesota

CITY           SKY/WX    TMP DP  RH WIND       PRES   REMARKS
FERGUS FALLS   SUNNY     57  45  62 W12       30.22S
WHEATON        SUNNY     63  37  39 SW10      30.24F
MORRIS         SUNNY     61  36  39 NW5       30.23F
ALEXANDRIA     SUNNY     60  35  39 SW10      30.24S
ELBOW LAKE     FAIR      59  40  48 SW10      30.24R
WADENA         SUNNY     59  39  47 SW10G17   30.20S
GLENWOOD       SUNNY     59  37  44 W13       30.24F
BENSON         SUNNY     63  28  27 NW13      30.26F
ORTONVILLE     SUNNY     61  37  41 W6        30.24F
MADISON        SUNNY     63  36  36 NW6       30.25S
WILLMAR        FAIR      61  43  51 W6        30.26F
$$
MNZ033>034-036-042>043-049>051-058-059-221700-
   Central Minnesota

CITY           SKY/WX    TMP DP  RH WIND       PRES   REMARKS
ST CLOUD       SUNNY     61  39  44 W10       30.23F
SAUK CENTRE    FAIR      59  37  44 W14       30.24S
PAYNESVILLE    SUNNY     59  37  42 W13       30.25S
AITKIN         SUNNY     64  30  27 SW8       30.18S
PINE RIVER     MOSUNNY   61  41  48 W10       30.21S
BRAINERD       CLOUDY    59  34  39 W14       30.21S
STAPLES        SUNNY     61  34  36 W15       30.21S
LONG PRAIRIE   FAIR      59  36  41 SW12      30.23S
LITTLE FALLS   SUNNY     59  32  36 W5        30.22F
LITCHFIELD     SUNNY     61  41  48 NW6       30.25F
BUFFALO        SUNNY     61  36  39 W5        30.24F
MAPLE LAKE     SUNNY     63  38  39 W7        30.24F
HUTCHINSON     MOSUNNY   62  43  49 W10       30.25F
$$
MNZ037-044-045-052-053-221700-
   East Central Minnesota

CITY           SKY/WX    TMP DP  RH WIND       PRES   REMARKS
PRINCETON      SUNNY     64  37  36 W9        30.23S
MORA           SUNNY     59  34  38 W10       30.23F
CAMBRIDGE      SUNNY     64  43  45 W9        30.20F
RUSH CITY      SUNNY     62  37  39 W8        30.22F
MOOSE LAKE     SUNNY     63  36  36 W9G18     30.17F
HINCKLEY       FAIR      63  37  39 W10G17    30.21F
CLOQUET        SUNNY     63  27  25 W17       30.17S
MCGREGOR       CLOUDY    57  37  47 W9        30.19F
$$
MNZ071>073-080-081-089-090-097-098-221700-
   Southwest Minnesota

CITY           SKY/WX    TMP DP  RH WIND       PRES   REMARKS
MONTEVIDEO     SUNNY     63  39  42 W8        30.25F
GRANITE FALLS  SUNNY     62  41  44 W8        30.27F
CANBY          SUNNY     61  36  39 SW10      30.27F
MARSHALL       SUNNY     60  37  42 NW8       30.26F
REDWOOD FALLS  SUNNY     61  39  44 NW7       30.25F
OLIVIA         SUNNY     61  41  48 NW7       30.25S
PIPESTONE      SUNNY     57  28  33 W6        30.27F
WINDOM         SUNNY     61  32  33 W8        30.27S
WORTHINGTON    SUNNY     58  34  40 W8        30.28F
JACKSON        SUNNY     59  32  36 W6        30.27S
TRACY          SUNNY     60  38  44 W6        30.27S
SLAYTON        SUNNY     57  37  48 NW6       30.28S
$$
MNZ065>067-074>077-082>085-091>093-221700-
   South Central Minnesota

CITY           SKY/WX    TMP DP  RH WIND       PRES   REMARKS
MANKATO        MOSUNNY   59  37  44 VRB7      30.26F
NEW ULM        SUNNY     59  43  55 W7        30.26S
ST JAMES       SUNNY     59  39  47 NW9       30.27F
GLENCOE        SUNNY     62  41  47 W8        30.24F
FARIBAULT      SUNNY     61  30  31 CALM      30.26F
OWATONNA       SUNNY     59  28  31 W3        30.26S
WASECA         SUNNY     55  30  38 W3        30.27F
ALBERT LEA     SUNNY     57  23  26 NW7       30.25F
$$
MNZ078>079-086>088-094>096-221700-
   Southeast Minnesota

CITY           SKY/WX    TMP DP  RH WIND       PRES   REMARKS
ROCHESTER      SUNNY     57  31  37 VRB3      30.26F
RED WING       SUNNY     61  18  18 W3        30.25S
STANTON        SUNNY     60  34  36 SW7       30.24F
DODGE CENTER   SUNNY     57  28  33 NE3       30.25F
WINONA         SUNNY     55  36  47 CALM      30.26F
AUSTIN         SUNNY     57  27  30 N3        30.25F
PRESTON        SUNNY     54  32  43 NW3       30.26F
$$
ABBREVIATIONS USED IN REMARKS
   TC - TEMPERATURES IN CELSIUS
  WCI - WIND CHILL INDEX
   HX - HEAT INDEX
  VSB - VISIBILITY
$$




USA.gov is the U.S. government's official web portal to all federal, state and local government web resources and services.